San Nicolas Island, CA

11:14 AM PDT on June 25, 2017 (GMT -0700)
San Nicolas Island Naval Outlying Field

Weather History for KNSI - January, 2013

Change the Weather History Date:

Saturday, January 19, 2013

  Actual Average Record
Temperature  
Mean Temperature 70 °F -  
Max Temperature 80 °F 59 °F 80 °F (2013)
Min Temperature 59 °F 49 °F 48 °F (2011)
Cooling Degree Days 4    
Growing Degree Days 20 (Base 50)    
Moisture  
Dew Point 25 °F    
Average Humidity 20    
Maximum Humidity 34    
Minimum Humidity 10    
Precipitation  
Precipitation 0.00 in - - ()
Sea Level Pressure  
Sea Level Pressure 30.10 in    
Wind  
Wind Speed 3 mph (North)    
Max Wind Speed 10 mph    
Max Gust Speed -    
Visibility 9 miles    
Events      
Averages and records for this station are not official NWS values.
T = Trace of Precipitation, MM = Missing Value Source: NWS Daily Summary

Daily Weather History Graph

Daily Weather History Graph

Search for Another Location

Airport or City:

Trip Planner

Search our weather history database for the weather conditions in past years. The results will help you decide how hot, cold, wet, or windy it might be!

Date:

Astronomy

Jan. 19, 2013 Rise Set
Actual Time 7:00 AM PST 5:17 PM PST
Civil Twilight 6:33 AM PST 5:44 PM PST
Nautical Twilight 6:03 AM PST 6:14 PM PST
Astronomical Twilight 5:33 AM PST 6:44 PM PST
Moon 11:43 AM PST (1/19) 12:43 AM PST (1/19)
Length of Visible Light 11h 10m
Length of Day
10h 17m
First Quarter, 58% of the Moon is Illuminated
Jan 19
First Quarter
Jan 26
Full
Feb 3
Last Quarter
Feb 9
New
Feb 17
First Quarter

Hourly Weather History & Observations

Time (PST) Temp. Dew Point Humidity Pressure Visibility Wind Dir Wind Speed Gust Speed Precip Events Conditions
12:53 AM 79.0 °F 18.0 °F 10% 30.07 in 10.0 mi South 3.5 mph - N/A   Clear
1:53 AM 80.1 °F 18.0 °F 10% 30.08 in 10.0 mi South 4.6 mph - N/A   Clear
2:53 AM 59.0 °F 24.1 °F 26% 30.08 in 10.0 mi Calm Calm - N/A   Clear
3:53 AM 69.1 °F 18.0 °F 14% 30.08 in 10.0 mi Calm Calm - N/A   Clear
4:53 AM 62.1 °F 18.0 °F 18% 30.08 in 10.0 mi Calm Calm - N/A   Clear
5:53 AM 73.9 °F 19.0 °F 13% 30.09 in 10.0 mi Calm Calm - N/A   Clear
6:53 AM 66.9 °F 19.0 °F 16% 30.11 in 10.0 mi Calm Calm - N/A   Clear
7:53 AM 66.0 °F 25.0 °F 21% 30.13 in 10.0 mi Calm Calm - N/A   Clear
8:53 AM 62.6 °F 28.9 °F 28% 30.14 in 7.0 mi East 3.5 mph - N/A   Partly Cloudy
9:53 AM 63.9 °F 32.0 °F 30% 30.16 in 7.0 mi ENE 8.1 mph - N/A   Partly Cloudy
10:53 AM 65.7 °F 26.1 °F 22% 30.15 in 7.0 mi ENE 6.9 mph - N/A   Partly Cloudy
11:53 AM 66.2 °F 28.4 °F 24% 30.12 in 7.0 mi East 5.8 mph - N/A   Partly Cloudy
12:53 PM 68.0 °F 23.0 °F 18% 30.09 in 7.0 mi ENE 4.6 mph - N/A   Partly Cloudy
1:53 PM 68.2 °F 24.8 °F 20% 30.09 in 7.0 mi ENE 4.6 mph - N/A   Partly Cloudy
2:53 PM 67.5 °F 32.0 °F 27% 30.09 in 7.0 mi ENE 3.5 mph - N/A   Partly Cloudy
3:53 PM 66.4 °F 32.0 °F 28% 30.08 in 7.0 mi South 4.6 mph - N/A   Partly Cloudy
4:53 PM 64.4 °F 35.1 °F 34% 30.08 in 7.0 mi Calm Calm - N/A   Partly Cloudy
5:53 PM 75.0 °F 34.0 °F 22% 30.07 in 10.0 mi NW 3.5 mph - N/A   Clear
6:53 PM 75.0 °F 25.0 °F 16% 30.09 in 10.0 mi WNW 4.6 mph - N/A   Clear
7:53 PM 70.0 °F 24.1 °F 18% 30.11 in 10.0 mi WNW 4.6 mph - N/A   Clear
8:53 PM 72.0 °F 24.1 °F 17% 30.11 in 10.0 mi WNW 8.1 mph - N/A   Clear
9:53 PM 72.0 °F 24.1 °F 17% 30.12 in 10.0 mi West 9.2 mph - N/A   Clear
10:53 PM 73.0 °F 23.0 °F 15% 30.12 in 10.0 mi West 10.4 mph - N/A   Clear
11:53 PM 71.1 °F 23.0 °F 16% 30.12 in 10.0 mi West 10.4 mph - N/A   Clear